{"data":{"norad_id":67675,"epoch":"2026-09-20T14:13:17.272128Z","epoch_age_seconds":81291,"freshness":"FRESH","line1":"1 67675U 26023B   26263.59256102  .00006213  00000+0  23689-3 0  9995","line2":"2 67675  96.6147 314.2313 0017507 150.9326 209.2893 15.26844108 34569","mean_motion":15.26844108,"eccentricity":0.0017507,"inclination_deg":96.6147,"raan_deg":314.2313,"arg_perigee_deg":150.9326,"mean_anomaly_deg":209.2893,"bstar":0.00023689,"rev_number":3456,"period_min":94.31218239341,"perigee_km":473.23776864281,"apogee_km":497.26924416192,"semimajor_km":6863.3905064024,"source":"CELESTRAK","updated_at":"2026-09-21T09:00:16.776277Z"}}